{"data":{"norad_id":55384,"epoch":"2026-05-25T00:09:42.774912Z","epoch_age_seconds":74359,"freshness":"FRESH","line1":"1 55384U 23013BF  26145.00674508  .00000028  00000+0  10559-4 0  9995","line2":"2 55384  43.0041 247.2241 0001852 282.9037  77.1608 15.27575520183176","mean_motion":15.2757552,"eccentricity":0.0001852,"inclination_deg":43.0041,"raan_deg":247.2241,"arg_perigee_deg":282.9037,"mean_anomaly_deg":77.1608,"bstar":1.0559e-5,"rev_number":18317,"period_min":94.267025174638,"perigee_km":481.79181665471,"apogee_km":484.33320495351,"semimajor_km":6861.1995108041,"source":"CELESTRAK","updated_at":"2026-05-25T13:38:17.771118Z"}}